Погода Красная Гора

Погода Красная Гора : погода сейчас, прогноз погоды и архив. Всё, что Вы хотите узнать о погоде Красная Гора!

Хотите узнать прогноз погоды Красная Гора? Тогда Вам сюда: Погода Красная Гора

Поиск расширенной информации на нашем сайте:

Другие новости

Новости СМИ2

Главная страница сайта

Новости сайта

03.07.2017

Напоминаем, что на нашем специализированном сайте Метеоцентр.Азия вы можете получить высокодетализированные автоматические прогнозы погоды по пунктам России, СНГ и мира в авиационном формате (включающие направление и скорость ветра, видимость, явления погоды, количество и форму облачности, нижнюю и верхнюю границу облачности).


Погода Красная Гора - сегодня

Время (UTC), дата Ветер
(°,м/с) 
Видим.   Явления Облачность Т
(°С)
Тd
(°С)
f(%) Тe
(°С)
Pmin
(гПа)
dP
(гПа)
Po
(мм)
O2
(г/м3)
Тmin Tmax R s Состояние
почвы
15 16.04.18 140 (ЮВ) 10 км    9/0 средняя, верхняя 
[Ac trans|Ci fib]
+20.5 +5.6 38 +21  1017.1  -1.5  750  280           
00 17.04.18 140 (ЮВ) 10 км    8/0 средняя 
[Ac trans]
+11.3 +6.9 74 +12  1016.9  -0.2  749  289           
09 17.04.18 120 (ЮВ) 10 км    10/0 средняя 
[As op]
+15.6 +6.1 53 +16  1016.5  749  285           
12 17.04.18 140 (ЮВ) 10 км    10/3 600 м кучево-дожд., средняя 
[Cb cap|As op]
+17.3 +5 44 +18  1015.9  -0.5  749  283           
15 17.04.18 160 (Ю) 10 км    10/3 600 м кучево-дожд., средняя 
[Cb cap|As op]
+17.7 +6.1 46 +18  1015  -0.8  748  282           
21 17.04.18 200 (Ю) 10 км    10/0 средняя 
[As op]
+14.1 +6.2 59 +15  1014.1  -0.9  747  285           
18 18.04.18 300 (СЗ) 3{10}  10 км  {гроза, ливн. осадки}  9/3 600 м кучево-дожд., средняя 
[Cb cap|Ac trans]
+10.3 +6.5 77 +10  1016.9  -0.3  749  290    +14     
18 19.04.18 320 (СЗ) 5-10{10}  10 км  {ливн. осадки}  8/3 600 м кучево-дожд., средняя 
[Cb cap|Ac trans]
+8.9 +5.4 79 +7  1015  1.7  748  291    +12.2     
21 19.04.18 310 (СЗ) 3{10}  10 км    ясно 
+7.9 +4.2 77 +7  1016.3  1.3  749  293           
00 20.04.18 320 (СЗ) 10 км    ясно 
+6.9 +3.6 79 +5  1017  0.5  749  294           
21 20.04.18 200 (Ю) 10 км    ясно 
+8.1 +1.8 64 +9  1017.2  -0.9  749  293           
00 21.04.18 200 (Ю) 10 км    ясно 
+6.8 +2.2 72 +7  1015.6  -1.8  748  294           
09 21.04.18 220 (ЮЗ) 6-11{12}  10 км    ясно 
+19.3 +2.8 33 +19  1005.3  -4.3  741  278           
18 21.04.18 300 (СЗ) 7-13{19}  10 км    4/0 средняя 
[Ac trans]
+15.8 -0.9 32 +15  1002.1  3.9  739  281    +22.4       
21 21.04.18 300 (СЗ) 4-10{17}  10 км    ясно 
+11.1 +1.1 50 +10  1005.8  3.3  741  287           
00 22.04.18 280 (З) 3{11}  10 км    ясно 
+8.8 +0 54 +8  1006.9  0.9  742  289           
03 22.04.18 270 (З) 10 км    ясно 
+6.8 +0.5 64 +6  1007.1  0.1  742  292  +6.7         
18 22.04.18 320 (СЗ) 5{14}  10 км  {ливн. осадки}  8/4 600 м кучево-дожд., средняя 
[Cb cap|Ac trans]
+7.8 +2.5 69 +6  1010.8  2.4  745  291    +13.9  0.7     
21 22.04.18 280 (З) 1{11}  10 км  {ливн. осадки}  ясно 
+4.2 +2.5 89 +5  1012.1  745  295           
00 23.04.18 300 (СЗ) 4000 м  дымка{ливн. осадки}  ясно 
+2.5 +1.5 93 +2  1013.7  1.5  746  298           
09 23.04.18 290 (З) 10 км    4/4 1000 м 
[Cu med, cong]
+8 -3.2 45 +7  1016.6  0.3  749  294           
12 23.04.18 350 (С) 10 км    3/0 верхняя 
[Cu med, cong|Ci fib]
+10.6 -4.9 33 +10  1015.9  -0.6  749  291           
15 23.04.18 360 (С) 10 км    3/0 верхняя 
[Ci fib]
+11.7 -6.4 28 +13  1015  -0.8  748  290           
21 23.04.18 120 (ЮВ) 10 км    3/0 верхняя 
[Ci fib]
+3.5 -4.6 55 +4  1015.3  -0.2  748  298           
00 24.04.18 тихо ()   10 км    4/0 верхняя 
[Ci fib]
+2 -4.1 64 +2  1015.1  -0.2  748  299           
Время (UTC), дата Ветер
(°,м/с) 
Видим.   Явления Облачность Т
(°С)
Тd
(°С)
f(%) Тe
(°С)
Pmin
(гПа)
dP
(гПа)
Po
(мм)
O2
(г/м3)
Тmin Tmax R s Состояние
почвы

Для получения пояснительной информации подведите курсор к названию столбца.

ПОГОДА Красная Гора - архив

Всё, что Вы хотите узнать о погоде Красная Гора - удобно и подробно!

Выберите нужную дату (начиная с 1 января 2015* года) и нажмите кнопку "Найти".
Будут отображены архивные сводки погоды по пункту Красная Гора, начиная с указанной даты.


Отображать данные в формате CSV (для использования в таблицах Excel)


Внимание! Наш архив погоды предназначен исключительно для личного некоммерческого использования в познавательных целях. Если Вам необходимы официальные справки о состоянии погоды (для производственных, юридических, коммерческих и т.п. целей), обращайтесь в органы Росгидромета.

*Примечание: данная дата относится к архиву по метеостанциям СССР (Россия, СНГ, Балтия).
Архив по метеостанциям Зарубежной Европы и Азии (кроме Китая) хранится 10 дней, по другим регионам земного шара (Китай, Африка, Америка, Австралия, Океания) - 1 день.

Красная Гора - район местоположения метеостанции


Название, широта, долгота, высота метеостанции:
Красная Гора 53°ш. 31.6°д. 148 м над ур. моря [Российская Федерация]

Дополнительная информация

В oтличие oт бoльшинства пoгoдных сайтoв мы публикуем пoдрoбную метеoинфoрмацию в детальнoм прoфессиoнальнoм фoрмате.

Характеристики температуры и влажнoсти вoздуха измеряются на высoте 2 м в тени вдали oт зданий и деревьев.
Скoрoсть ветра измеряется на высoте 10 м (на урoвне рoста челoвека скoрoсть ветра ниже в 1.5-2 раза). Если метеoстанция нахoдится в гoрoде или в лесу, тo скoрoсть ветра занижена на 2-4 м/с пo сравнению с oткрытым местoм. Скoрoсть ветра над акватoриями крупных рек и oзёр, а также на вершинах хoлмoв на 2-5 м/с выше, чем в oбычных услoвиях.
Атмoсфернoе давление в разных тoчках местнoсти мoжет значительнo oтличаться oт давления на метеoстанции, в зависимoсти oт услoвий рельефа (при пoдъёме на 10 м давление пoнижается примернo на 1 мм рт.ст.).